This is the latest recevied weather packets stored in our database for station/object SP6FIG-13. If no packets are shown the sender has not sent any weather packets the latest 10 day(s).
| Time | Temp. | Humidity | Pressure | Rain* | Wind** | Luminosity | Snow |
|---|---|---|---|---|---|---|---|
| 1777219645 | 21.11° C | 35% | 1024 hPa | - | - | - | - |
| 1777219345 | 21.11° C | 36% | 1024.2 hPa | - | - | - | - |
| 1777219045 | 21.11° C | 35% | 1023.9 hPa | - | - | - | - |
| 1777218745 | 21.11° C | 35% | 1024 hPa | - | - | - | - |
| 1777218445 | 21.67° C | 36% | 1023.7 hPa | - | - | - | - |
| 1777218145 | 21.11° C | 36% | 1024 hPa | - | - | - | - |
| 1777217845 | 21.67° C | 36% | 1024 hPa | - | - | - | - |
| 1777217545 | 21.67° C | 36% | 1024 hPa | - | - | - | - |
| 1777217245 | 21.67° C | 35% | 1024.1 hPa | - | - | - | - |
| 1777216944 | 21.67° C | 35% | 1024.1 hPa | - | - | - | - |
| 1777216645 | 21.67° C | 35% | 1023.9 hPa | - | - | - | - |
| 1777216345 | 21.67° C | 35% | 1024.1 hPa | - | - | - | - |
| 1777216045 | 22.22° C | 34% | 1023.6 hPa | - | - | - | - |
| 1777215745 | 22.22° C | 33% | 1024 hPa | - | - | - | - |
| 1777215445 | 22.22° C | 33% | 1023.5 hPa | - | - | - | - |
| 1777215145 | 22.22° C | 32% | 1023.8 hPa | - | - | - | - |
| 1777214845 | 22.22° C | 33% | 1023.6 hPa | - | - | - | - |
| 1777214545 | 22.22° C | 35% | 1023.6 hPa | - | - | - | - |
| 1777214244 | 22.22° C | 37% | 1023.6 hPa | - | - | - | - |
| 1777213944 | 22.22° C | 39% | 1023.7 hPa | - | - | - | - |
| 1777213645 | 22.22° C | 36% | 1023.6 hPa | - | - | - | - |
| 1777213344 | 22.22° C | 40% | 1023.5 hPa | - | - | - | - |
| 1777213044 | 22.22° C | 40% | 1023.5 hPa | - | - | - | - |
| 1777212744 | 22.22° C | 40% | 1023.4 hPa | - | - | - | - |
| 1777212444 | 22.22° C | 40% | 1023.3 hPa | - | - | - | - |
* Rain since midnight (hover to see other rain measurements)
** Current wind speed in m/s (hover to see current wind gust speed)